Wind_Speed
55 55 56 58 59 56 53 51 49 48 48 48 48 48 50 51 54 57 57 56 55 53 53 53 52 52 54 56 57 58 59 61 61 57 55 53 53 55 57 56 55 52 53 56 58 60 62 62 62 62 62 61 59 57 55 54 52 51 51 50 48 47 46 46 45 45 44 44 43 42 42 41 41 41 41 41 39 38 36 35 34 34 33 33 32 32
54 54 58 60 58 55 52 50 48 48 48 48 48 48 49 51 54 56 56 56 53 51 53 54 52 52 54 56 57 56 57 60 60 56 53 52 53 56 56 55 52 50 52 55 57 59 59 58 58 57 57 56 56 55 53 51 50 49 48 48 46 45 44 44 44 44 43 43 42 42 42 42 41 41 41 40 39 37 37 36 35 35 34 33 32 32
52 55 60 59 55 53 51 50 49 49 48 48 48 47 48 51 53 54 55 55 52 50 53 54 51 51 53 54 55 54 55 59 58 55 52 51 54 57 55 52 50 49 52 54 56 56 54 53 52 52 52 52 52 52 50 49 47 46 46 46 44 43 43 43 43 43 43 43 42 42 42 41 41 42 41 40 39 38 37 36 35 34 33 33 33 32
53 57 58 55 52 52 52 51 50 48 47 47 47 46 48 50 51 52 54 54 50 49 52 51 49 50 51 52 52 52 54 57 57 53 50 50 53 54 52 49 48 49 51 51 51 50 48 48 48 47 47 47 48 47 46 45 44 43 44 44 43 42 42 42 42 42 42 42 42 42 40 40 40 40 40 40 39 39 38 36 34 33 33 34 34 33
55 58 55 52 52 52 52 51 49 47 47 46 46 46 47 49 50 51 52 50 49 49 50 48 46 47 49 50 50 51 53 55 54 51 48 48 50 50 48 47 47 48 49 47 47 46 45 46 46 45 44 44 44 43 42 42 41 41 43 43 43 42 41 41 41 41 42 42 42 41 39 38 38 37 38 39 39 38 37 35 34 34 34 35 35 35
57 58 54 53 53 52 51 50 48 46 45 45 46 46 47 48 48 49 49 47 47 49 47 45 43 45 48 48 47 48 50 52 50 48 47 47 47 47 47 48 49 49 48 46 45 44 45 45 44 43 42 41 41 40 40 40 40 40 41 42 42 42 41 41 41 41 42 42 42 41 39 37 35 35 36 37 37 37 37 36 36 36 36 37 37 37
58 57 53 53 52 50 50 49 47 45 44 45 46 46 45 46 46 46 46 45 45 46 44 42 42 44 47 45 43 45 47 48 46 44 45 44 44 45 47 49 50 49 47 45 44 44 44 43 42 41 40 39 39 39 39 39 40 40 40 41 42 42 41 41 41 41 41 42 42 42 40 38 36 36 36 36 37 38 38 38 38 38 37 37 37 37
57 54 52 52 50 49 49 48 46 44 43 45 45 44 44 44 44 44 44 43 43 42 41 40 41 43 44 42 41 43 44 44 44 43 43 43 43 45 47 48 48 48 47 46 45 43 42 41 41 40 39 37 37 38 39 39 39 39 40 40 41 41 41 41 41 40 41 42 42 42 42 42 40 38 37 36 37 38 39 39 39 38 37 36 35 34
52 50 51 49 48 49 50 47 45 43 44 44 43 42 42 42 42 42 42 42 40 39 38 38 39 41 41 40 40 41 42 43 43 43 42 42 43 45 45 45 46 46 46 46 44 42 41 41 41 39 37 36 36 37 38 38 39 39 39 39 40 40 41 41 41 40 41 42 42 42 43 44 44 42 40 39 40 41 41 40 39 38 36 35 33 31
48 48 49 47 47 50 49 45 42 43 43 42 40 40 40 40 40 40 40 41 37 35 36 37 38 41 39 38 39 39 41 42 43 42 42 42 43 43 43 43 44 45 45 44 42 40 39 39 39 38 36 35 36 37 37 37 38 38 39 39 39 40 40 40 41 41 41 42 42 42 43 44 45 44 43 43 44 44 43 41 39 37 35 33 31 28
47 47 46 46 49 50 46 42 41 42 42 39 38 38 38 38 38 38 38 38 34 32 35 36 38 40 38 37 38 39 41 42 42 41 40 40 41 41 40 41 41 42 43 41 39 37 37 37 37 36 35 35 35 36 35 35 36 37 39 39 39 39 39 40 40 41 41 42 43 43 43 43 43 44 44 45 45 44 42 39 37 35 33 31 29 28
46 46 46 48 49 47 43 41 40 41 40 37 36 36 36 36 36 36 36 35 31 32 35 36 38 39 37 36 37 38 40 40 40 40 40 39 40 39 38 38 38 39 39 37 34 32 33 35 36 36 35 34 34 34 34 34 35 37 38 39 38 38 39 39 40 40 41 42 42 42 42 42 42 42 42 43 42 41 40 38 36 35 33 31 29 28
43 44 45 46 46 44 41 40 40 40 38 36 35 34 34 34 34 34 34 33 31 34 36 35 36 37 36 36 36 37 38 39 40 40 39 39 39 39 38 36 35 35 34 31 25 22 27 33 36 37 36 34 32 32 33 34 35 37 39 38 38 38 38 39 39 40 40 41 41 42 42 42 41 40 40 40 40 39 38 37 36 35 34 32 30 30
41 43 44 44 43 42 41 40 39 38 36 34 33 32 32 32 32 32 32 32 32 36 36 34 34 35 34 34 35 35 37 39 39 38 37 37 36 36 35 33 32 31 30 26 21 23 32 37 36 34 33 32 31 29 32 35 36 37 39 39 38 39 39 39 40 40 40 40 40 40 41 40 40 39 38 38 38 38 37 37 36 36 35 34 33 33
41 42 42 42 42 41 41 39 38 35 33 31 30 30 31 31 31 32 32 31 33 35 34 32 32 32 32 33 33 35 37 37 35 34 32 31 31 31 31 30 30 29 28 27 28 32 39 41 37 33 30 28 26 24 28 33 36 38 39 39 39 39 40 40 41 41 40 39 40 39 39 39 39 38 37 37 37 38 38 38 37 37 37 36 36 35
40 41 42 42 41 40 40 37 34 31 30 29 28 29 30 31 30 30 30 30 31 32 32 30 30 32 33 33 34 35 35 33 31 29 29 30 30 29 28 26 24 21 21 26 31 33 37 40 39 35 32 26 18 17 24 30 33 38 40 40 38 37 39 39 40 43 41 40 40 39 38 38 37 37 36 36 36 38 39 39 39 39 38 37 36 35
38 40 41 41 39 39 38 34 31 29 28 27 29 30 31 29 28 28 28 28 28 29 30 29 30 32 33 33 34 34 32 29 27 27 29 31 30 27 24 20 18 18 20 26 32 34 36 39 39 38 36 29 18 19 30 33 33 37 39 38 36 34 36 38 41 45 44 42 41 40 39 37 36 35 35 34 35 36 37 38 38 38 37 36 35 34
38 40 40 38 38 38 35 32 29 29 28 28 30 31 29 28 27 26 26 26 27 28 28 28 30 32 33 33 33 30 27 25 24 26 28 28 24 19 15 13 16 24 29 31 34 37 38 38 38 37 37 34 28 29 38 41 39 39 38 35 32 29 32 37 41 44 44 42 41 40 38 36 34 34 34 35 35 36 37 38 38 37 37 36 36 35
38 39 38 37 37 36 34 32 30 29 29 29 30 29 27 27 26 26 25 25 26 27 27 28 30 32 32 32 31 27 24 23 24 24 24 20 14 9 6 7 13 23 31 35 37 39 40 40 38 37 37 38 35 34 39 44 45 44 41 37 33 29 32 36 37 37 38 38 38 37 37 36 36 36 37 38 38 38 38 38 37 37 37 37 36 36
37 39 37 36 36 35 34 32 30 29 29 30 30 28 27 27 26 26 26 25 25 25 26 28 30 32 32 31 28 25 24 25 24 22 20 17 17 16 14 13 15 20 25 31 36 39 41 43 43 41 39 38 36 35 36 40 43 43 39 35 34 35 37 38 35 32 30 29 30 32 33 34 35 37 38 38 38 38 38 37 37 37 37 37 37 37
37 38 36 35 35 34 34 31 29 28 29 29 28 27 27 26 25 25 26 25 26 26 27 28 29 32 32 31 27 25 26 27 25 22 22 22 21 20 18 16 16 18 22 29 37 41 43 45 46 45 44 42 39 38 36 37 40 41 38 36 37 39 40 40 38 33 29 27 26 26 28 30 32 33 34 35 36 37 37 38 38 38 38 38 37 38
36 37 35 34 34 34 32 30 28 28 29 28 28 27 27 26 25 25 25 25 26 27 29 30 31 33 32 30 28 27 29 29 27 28 30 30 28 24 19 15 17 24 27 30 38 44 44 43 43 42 42 41 39 37 35 35 37 39 40 40 42 42 41 41 40 35 29 27 27 27 29 32 33 32 32 33 34 35 36 37 38 39 38 38 38 37
35 36 35 33 32 33 32 30 29 29 28 28 27 27 27 26 25 25 25 26 27 28 31 32 33 34 33 31 30 29 31 31 32 35 37 37 35 30 24 23 26 33 36 37 40 43 43 43 42 41 40 38 36 33 31 31 33 37 39 38 40 41 39 39 42 40 36 33 33 33 33 34 34 34 34 35 36 36 36 37 38 40 40 39 38 38
35 35 35 33 32 32 31 30 30 29 28 28 27 27 27 26 25 25 25 26 27 29 31 33 34 35 35 34 33 33 33 33 37 41 41 39 37 35 35 35 35 37 41 42 40 38 38 39 40 40 39 35 31 30 29 29 31 35 37 36 37 37 36 37 39 42 42 40 37 35 33 32 34 35 36 36 36 36 37 38 38 40 40 40 39 39
36 36 35 34 32 32 31 30 30 30 29 28 28 27 27 26 25 26 26 26 27 29 32 34 35 36 36 36 36 36 35 36 41 45 43 40 37 37 40 44 43 40 41 44 43 39 37 36 36 35 33 28 25 27 30 32 32 33 34 35 36 36 36 37 37 39 40 38 36 34 33 33 36 37 37 35 34 35 36 37 38 38 38 38 38 38
37 36 36 35 34 32 31 30 31 31 30 28 28 28 28 27 26 26 26 26 27 30 33 35 36 37 38 38 38 37 37 39 45 49 45 41 38 37 41 46 47 45 42 43 44 40 37 36 33 30 26 24 22 22 27 32 34 33 34 34 34 35 37 38 38 38 37 36 35 35 35 36 37 38 37 35 34 35 37 38 39 38 37 36 37 38
38 37 37 36 34 33 32 32 32 32 30 29 29 30 29 29 28 27 27 26 27 31 34 36 38 39 39 39 38 38 39 41 48 51 48 44 40 39 42 46 47 46 45 44 43 39 36 35 32 27 23 22 23 23 25 30 33 34 35 36 36 37 37 39 40 39 38 37 37 38 38 37 37 38 38 36 35 35 37 39 40 39 39 39 38 38
39 39 39 37 36 35 34 33 33 32 31 30 30 31 31 31 30 29 28 27 28 31 34 37 39 41 41 40 40 40 42 44 50 55 52 48 42 40 43 47 48 48 47 46 44 41 38 36 33 30 27 26 27 28 29 30 31 32 34 38 40 39 39 42 43 42 40 40 41 42 41 39 38 40 41 39 38 38 39 40 41 42 44 46 46 44
40 40 39 38 37 36 35 34 34 34 33 32 31 32 32 31 31 30 30 29 29 31 33 36 40 42 42 42 43 44 45 47 53 57 55 51 47 44 47 50 51 51 51 50 47 43 39 38 36 36 34 31 30 30 31 33 33 32 34 40 42 42 43 45 46 43 41 41 42 43 42 42 42 43 43 43 43 43 43 44 45 46 47 49 50 50
42 41 40 39 39 38 37 36 36 35 35 34 32 32 32 32 32 32 31 31 31 32 34 36 39 41 43 43 44 46 47 49 54 58 58 55 52 49 49 51 53 54 54 52 49 44 42 41 40 40 39 36 35 34 35 39 40 38 37 40 43 44 44 46 46 45 44 43 44 43 43 42 42 43 45 46 47 46 46 47 48 47 46 46 46 47
43 43 42 42 40 39 39 38 38 37 36 35 34 34 34 34 33 33 32 32 32 34 35 37 39 41 43 44 45 47 48 51 55 59 60 60 58 54 51 50 52 54 54 54 52 48 47 46 44 42 41 39 37 36 37 42 46 45 44 44 45 46 46 45 46 46 46 45 44 44 43 42 42 44 45 45 45 45 46 46 47 46 44 42 42 43
45 45 45 44 43 41 41 41 39 38 38 37 37 37 36 35 35 35 34 33 33 35 36 37 40 42 44 46 47 48 50 52 56 60 62 63 63 59 54 50 50 51 52 55 56 53 52 50 47 45 44 41 39 40 41 45 49 52 51 50 51 52 51 49 49 48 48 47 45 44 43 42 42 44 45 44 45 46 46 47 48 48 47 45 44 45
47 47 46 45 45 44 44 43 42 41 40 39 38 38 38 36 36 36 35 34 35 36 37 39 41 43 44 46 48 49 52 54 57 60 63 65 65 63 59 55 53 52 53 56 59 57 55 54 50 46 46 46 44 45 47 49 52 56 55 53 54 56 55 53 51 50 50 49 48 47 47 46 45 45 45 46 47 48 49 49 49 51 52 51 50 50
48 48 48 47 47 46 46 46 45 44 43 41 40 40 39 38 37 37 38 37 37 37 38 39 41 43 44 46 48 50 53 55 57 60 63 65 66 65 63 60 58 57 56 57 60 59 58 57 53 49 49 50 49 50 52 54 57 60 59 56 55 57 57 55 53 52 51 52 52 51 52 52 51 50 49 48 47 48 49 49 49 51 54 54 53 53
50 50 50 50 49 48 47 47 47 46 45 44 43 42 42 41 41 40 40 41 40 40 40 41 42 44 46 47 48 50 53 55 57 59 62 66 67 67 66 64 63 62 61 60 60 60 59 59 58 54 52 52 53 53 55 57 61 64 65 62 59 59 59 59 58 55 55 55 55 55 55 55 55 55 55 53 51 51 52 51 51 53 55 56 57 57
52 52 52 52 51 50 50 49 48 49 49 47 46 46 45 45 45 45 44 44 43 43 43 43 44 45 47 48 49 51 52 55 56 58 60 64 67 67 68 68 68 66 65 63 62 62 61 60 61 60 57 56 56 56 58 60 62 65 68 67 65 63 62 63 62 60 58 58 58 59 59 59 59 59 58 57 56 56 56 56 56 56 57 57 59 60
52 52 53 52 51 51 52 51 50 51 51 50 49 49 49 50 50 49 48 46 45 45 45 45 46 46 47 48 49 51 53 55 56 57 59 61 64 66 68 70 71 70 68 66 65 65 65 63 63 63 62 60 59 59 60 62 63 65 66 68 68 66 64 64 64 62 61 61 61 61 62 62 64 64 62 61 60 59 60 60 60 60 60 60 60 60
53 52 52 51 51 53 54 52 51 52 53 53 52 52 53 53 53 51 49 48 48 48 48 48 48 47 47 48 49 51 53 54 55 57 59 60 62 64 66 69 71 71 70 69 68 69 69 68 67 66 65 64 63 62 62 63 65 66 66 66 67 68 67 66 65 64 63 63 64 64 64 65 66 66 66 65 64 64 64 64 64 64 64 64 65 65
55 54 53 51 52 55 55 53 53 54 54 55 55 56 55 54 53 52 51 50 51 51 51 50 50 50 49 49 49 50 52 53 54 56 58 59 60 62 65 67 68 69 71 72 72 72 72 72 71 69 68 67 67 65 65 65 66 68 69 68 68 69 69 67 66 66 65 65 65 65 66 67 68 68 69 68 68 68 68 68 69 69 69 69 70 71
58 57 55 54 55 56 55 54 54 54 55 57 57 58 58 56 55 54 53 52 52 52 52 51 52 52 52 51 50 50 51 52 53 54 57 58 59 60 63 65 66 66 68 70 72 73 74 75 75 74 71 71 71 70 68 67 68 70 71 71 71 71 71 70 69 69 69 69 68 68 68 68 69 70 70 71 72 72 72 73 73 74 74 75 76 76
60 59 59 58 58 58 57 57 56 56 57 58 59 60 60 58 57 55 54 54 54 53 53 52 51 52 53 53 52 51 50 51 53 54 56 58 59 59 60 62 64 66 66 66 68 70 71 73 75 76 76 74 74 74 73 72 71 72 73 73 73 73 73 72 72 73 73 73 72 71 71 71 71 71 72 72 73 74 75 76 77 77 78 79 80 80
62 61 61 61 60 61 61 60 59 60 60 60 60 61 62 61 59 58 57 57 56 55 55 54 52 51 52 52 53 53 53 53 53 54 56 58 59 60 60 61 62 64 65 65 65 67 68 69 70 73 75 77 77 77 77 77 76 76 77 77 77 78 77 76 75 75 75 75 74 74 75 75 74 74 74 74 74 75 76 78 79 80 81 82 82 83
62 62 62 62 61 62 62 62 62 63 63 63 63 63 64 64 62 62 61 60 59 58 57 57 56 54 53 52 52 53 54 55 55 56 57 58 59 60 61 61 62 62 62 63 64 65 66 66 66 68 70 74 77 79 80 80 80 79 80 80 80 81 81 80 80 79 78 76 76 76 76 77 77 78 78 77 77 77 78 79 80 82 83 84 85 85
61 62 62 62 62 62 63 63 64 65 65 65 65 66 66 66 66 66 64 62 62 61 61 60 60 58 57 56 55 54 54 55 57 58 59 60 60 60 60 61 63 63 62 62 63 64 64 64 65 65 65 68 72 76 79 81 82 82 82 81 81 81 81 82 82 83 82 80 80 79 78 77 78 79 80 81 80 80 81 81 82 83 85 86 87 88
58 60 62 63 63 63 63 64 65 66 66 67 67 68 69 69 69 69 68 66 65 65 64 64 63 62 61 60 59 58 57 57 58 60 61 62 62 63 62 62 63 64 64 64 65 66 65 64 64 64 62 60 61 63 65 67 70 73 75 76 77 76 77 77 77 78 78 77 77 77 77 77 77 78 80 81 82 83 83 84 85 86 87 88 90 90
55 57 59 62 64 65 65 65 66 66 67 68 69 69 71 72 72 72 71 70 69 68 67 66 66 66 65 63 61 61 61 61 61 62 63 63 64 64 65 65 65 66 66 67 68 69 69 68 67 66 64 61 59 58 57 57 58 59 61 63 64 64 65 67 68 68 69 69 70 72 73 73 74 75 76 78 80 81 83 85 86 87 88 89 91 92
53 54 56 59 62 64 66 68 68 68 69 69 70 71 72 74 75 75 74 73 72 72 71 70 69 69 68 66 64 63 63 64 64 65 66 66 66 66 66 66 67 68 68 70 71 72 72 72 72 71 70 68 66 65 64 63 63 62 62 63 63 63 63 64 66 68 70 71 71 72 73 74 75 76 77 78 79 80 81 82 84 85 87 88 89 90
51 52 54 56 58 61 64 68 70 72 72 72 72 73 74 75 77 77 77 76 75 75 75 75 74 73 71 69 66 65 64 64 66 67 68 68 69 68 68 68 68 68 69 70 71 73 75 75 75 75 74 73 72 72 72 72 71 71 71 71 71 72 72 73 74 77 78 78 78 79 80 81 82 82 82 82 82 82 82 83 84 85 86 87 88 89
49 51 53 54 56 59 61 64 68 71 74 75 76 76 77 78 78 79 80 79 78 77 77 77 78 77 76 73 68 64 63 64 65 66 68 70 70 71 71 70 70 70 71 71 71 73 75 77 78 79 78 77 77 77 77 78 78 78 78 78 78 78 79 80 82 84 85 86 86 87 87 87 87 87 87 87 87 87 87 87 88 89 90 90 91 91
47 49 52 54 56 58 60 62 64 68 71 75 77 79 80 80 80 81 81 82 81 80 79 79 80 80 80 78 71 64 62 63 64 66 69 70 71 72 72 72 73 73 74 74 73 74 76 78 80 82 82 82 82 82 82 82 83 83 83 84 84 84 85 86 88 89 90 92 92 92 92 92 92 92 92 92 91 91 91 91 91 92 93 93 93 93
44 47 49 52 54 56 59 61 62 65 67 71 75 78 80 82 82 83 83 83 83 83 82 81 81 82 81 80 75 70 68 68 67 67 68 69 70 71 73 74 75 75 76 77 76 76 77 78 80 82 84 85 85 85 85 86 87 88 89 89 89 90 91 91 92 93 94 95 96 96 96 96 95 95 95 95 94 94 93 93 93 93 93 94 94 94
Wind_Direction
263 264 264 263 262 262 262 263 264 264 263 261 260 259 258 258 258 258 257 255 254 254 254 252 249 248 248 248 247 248 249 251 251 250 250 250 250 250 250 251 251 250 250 250 250 249 249 250 251 253 255 257 258 260 260 260 260 261 261 261 261 261 262 262 262 262 262 262 262 262 261 261 263 264 265 266 267 269 271 272 273 274 275 278 279 281
262 262 261 260 261 262 263 264 264 264 263 261 259 258 258 258 257 257 257 255 253 253 253 251 249 247 247 247 246 247 249 251 251 250 249 248 247 248 249 250 251 250 249 249 250 250 250 251 253 254 255 256 257 258 258 258 259 259 260 260 260 260 260 260 260 260 260 260 260 260 260 261 261 262 263 264 265 266 268 268 269 270 272 275 278 281
261 259 259 259 262 263 264 263 263 262 262 262 260 259 258 257 257 257 256 255 253 252 251 250 249 247 246 246 247 247 248 250 251 251 249 247 247 248 249 249 249 248 248 249 250 252 253 254 255 255 256 256 257 257 258 259 259 258 259 259 259 259 258 258 258 259 259 259 259 259 260 261 261 261 262 262 263 263 265 266 267 269 272 276 279 283
259 258 258 261 262 263 262 261 261 262 262 262 261 259 258 257 256 256 255 254 253 251 250 249 248 248 247 246 246 246 246 248 249 249 248 247 248 249 249 248 246 246 247 249 251 253 254 254 254 254 254 255 256 257 258 258 258 258 258 259 258 258 257 257 257 257 258 258 258 259 260 261 262 262 262 262 262 262 264 265 267 271 275 278 280 283
258 258 260 261 261 260 261 261 261 262 262 261 260 258 257 256 255 254 254 254 253 251 249 248 247 247 247 245 245 245 246 247 248 248 247 245 246 248 247 244 242 243 245 247 249 251 251 250 251 251 252 253 254 256 256 256 256 256 257 258 258 258 257 257 256 256 256 257 257 258 259 261 262 262 262 262 262 262 263 265 268 273 276 277 279 281
257 258 259 259 259 259 260 261 261 261 261 260 259 257 255 254 254 254 254 253 252 250 249 248 245 245 246 245 244 245 246 247 247 247 246 244 244 245 244 241 239 240 242 244 246 247 248 249 250 250 251 251 252 253 254 254 254 255 256 257 258 258 257 256 255 256 256 257 256 256 257 258 260 261 260 261 262 262 263 265 269 273 274 275 277 280
256 257 257 257 258 259 260 260 260 260 259 258 257 256 255 255 254 254 254 252 251 251 250 248 245 244 246 245 244 244 245 247 247 245 245 244 243 242 242 242 242 242 242 242 243 245 247 249 250 251 251 250 251 252 253 253 254 254 255 257 258 258 258 257 256 255 255 256 256 255 255 256 257 259 260 261 262 263 265 267 271 273 275 276 278 280
254 255 256 256 258 258 258 258 258 258 257 257 256 255 255 254 254 253 253 252 250 251 251 248 246 245 246 246 244 244 245 246 245 243 242 241 240 239 240 242 244 244 243 242 242 243 245 247 248 249 249 250 251 252 253 254 255 255 255 256 258 258 258 258 257 255 255 255 255 255 254 255 257 259 260 262 263 265 267 270 273 275 277 278 279 280
253 253 253 254 255 255 255 255 257 257 257 256 256 256 256 254 253 252 252 251 249 249 249 248 247 246 246 246 244 244 244 244 244 242 240 239 238 238 239 241 243 245 245 244 244 244 245 246 247 248 248 248 249 250 251 253 254 255 256 256 256 257 258 258 258 257 256 256 255 255 254 255 257 259 261 262 264 266 269 271 274 276 278 279 279 278
249 249 249 250 251 252 253 254 256 257 256 256 257 257 256 254 252 251 250 250 249 248 248 247 247 246 245 244 244 243 243 243 243 242 240 239 238 239 240 240 242 244 245 246 247 247 248 249 250 250 249 248 248 248 249 251 253 254 255 256 256 256 256 257 257 257 257 258 257 256 256 256 257 259 260 262 264 267 270 272 274 275 275 276 276 275
245 245 245 247 248 250 252 254 255 256 257 257 257 256 254 252 251 250 250 250 249 247 248 246 245 245 243 242 242 241 241 241 241 241 239 238 237 238 239 240 241 242 244 246 247 248 251 252 253 253 251 249 249 250 250 251 253 254 255 256 256 256 256 257 258 258 258 258 259 259 259 259 259 260 261 263 265 267 269 270 271 271 271 271 272 272
243 242 243 245 247 250 252 253 254 256 257 256 255 254 252 251 250 249 249 249 246 245 244 242 243 244 242 240 239 238 239 239 239 238 237 236 235 235 235 237 239 241 243 245 247 252 255 256 255 254 252 251 250 251 252 252 253 254 255 256 256 256 256 256 257 258 259 260 260 261 262 262 262 262 263 263 264 265 266 266 266 267 267 268 270 272
242 241 243 245 248 250 252 253 253 255 255 255 254 253 251 250 249 249 249 247 244 243 242 239 241 243 241 238 237 236 236 236 235 236 235 235 234 233 233 234 236 239 242 243 247 252 254 254 254 252 250 250 250 252 253 253 253 254 255 256 257 258 258 258 259 259 260 261 262 263 264 264 264 264 264 263 263 263 263 263 264 264 265 267 270 273
239 240 242 245 248 249 250 251 252 254 255 257 256 253 251 250 249 248 247 245 243 242 241 238 238 240 239 237 235 234 234 234 234 235 235 236 236 236 235 234 234 235 236 233 224 221 231 240 247 251 252 250 249 254 258 257 256 255 257 258 259 260 261 262 262 262 262 262 263 263 264 264 265 265 265 264 263 263 263 263 263 263 265 267 270 273
236 238 241 244 246 248 249 250 252 255 257 258 257 254 252 249 248 246 245 244 243 243 242 238 236 237 235 234 232 232 233 234 235 234 233 234 234 234 234 233 234 234 233 229 219 215 225 233 241 250 255 255 254 258 264 266 265 262 260 261 263 265 266 267 268 267 265 265 265 264 264 264 264 264 265 265 265 264 264 263 263 264 265 268 270 272
234 237 240 242 245 247 249 251 253 256 257 257 255 251 249 247 246 246 246 244 243 244 243 238 234 232 231 230 229 230 232 232 231 228 225 225 225 227 228 230 234 235 237 239 232 226 231 235 238 244 250 255 258 257 259 264 266 263 261 261 263 265 268 270 271 270 268 267 266 266 265 265 265 265 265 265 265 264 264 264 265 266 267 268 269 270
233 237 240 243 246 248 251 252 253 254 255 253 249 247 245 244 245 246 246 245 243 242 241 236 231 229 229 228 228 230 231 229 225 221 219 222 225 227 225 223 221 215 220 237 238 234 236 238 238 241 246 248 238 230 240 246 252 256 258 259 258 262 267 269 268 268 269 269 268 267 266 266 266 266 265 264 263 264 264 266 267 267 268 268 268 269
233 236 239 242 246 248 250 251 249 250 250 248 246 245 244 243 243 243 243 242 240 238 237 233 228 228 227 227 228 228 226 224 220 217 219 225 229 228 223 219 217 211 209 219 229 232 236 238 238 241 245 245 233 224 231 236 241 248 253 256 257 259 262 262 262 265 266 266 266 265 264 263 263 263 262 262 263 264 265 267 268 268 269 270 270 270
234 236 237 240 245 247 248 246 244 244 245 244 244 244 243 242 241 239 237 236 235 234 233 229 226 225 225 226 226 222 217 214 212 211 215 217 208 186 182 214 235 232 224 222 227 233 236 238 239 242 244 243 238 232 233 236 239 244 248 254 256 251 245 247 253 258 259 259 260 260 259 258 257 257 258 260 263 265 267 269 270 269 269 269 269 268
236 238 237 239 244 246 246 244 242 244 245 244 243 242 241 241 240 238 235 230 229 228 228 227 225 224 224 224 223 214 207 205 204 202 197 182 157 148 166 198 230 250 251 245 243 244 243 240 240 243 245 245 244 243 243 243 244 247 249 251 252 249 243 242 246 248 249 253 256 257 257 256 257 260 263 265 266 266 267 267 267 266 266 266 266 265
235 239 238 240 242 244 245 244 242 245 247 246 244 241 240 239 238 238 235 230 225 220 220 222 223 223 222 221 217 207 200 199 193 182 170 157 145 144 163 190 217 242 257 259 255 251 249 245 243 246 250 251 252 254 256 255 252 251 249 245 246 248 244 242 243 243 242 246 250 254 259 264 268 269 268 266 265 264 264 263 262 262 262 263 264 265
233 238 239 239 241 243 243 243 241 243 246 246 244 241 240 239 237 236 235 230 225 218 215 215 217 219 219 217 212 203 199 195 182 169 162 155 145 143 158 188 213 226 234 244 247 247 247 246 246 249 252 253 256 258 259 260 258 255 251 246 244 245 243 240 239 238 237 239 244 252 263 271 272 266 260 258 259 259 260 260 260 260 262 263 265 267
230 235 237 236 239 242 241 240 239 240 244 245 244 242 240 238 237 235 232 229 224 218 215 213 213 215 215 213 208 201 199 192 177 168 166 159 153 156 174 197 211 220 224 230 238 243 245 245 248 252 255 256 258 259 256 255 255 256 255 250 246 246 244 240 236 234 237 243 248 255 263 266 263 257 255 256 257 257 258 259 261 264 265 267 268 268
227 232 234 233 235 239 240 238 238 239 242 243 242 242 241 238 237 235 231 227 223 218 216 214 213 212 212 210 205 200 197 190 176 171 170 167 166 171 181 192 202 215 223 227 233 240 243 245 250 255 257 258 260 260 255 250 249 252 254 253 250 247 244 239 235 235 239 244 249 253 255 254 254 256 258 260 260 260 259 260 263 265 266 267 267 268
226 229 232 231 231 234 236 237 238 238 239 240 240 240 240 238 237 236 231 225 222 218 216 214 213 212 210 209 205 199 195 188 178 174 175 175 177 181 187 191 197 208 220 225 229 234 238 243 250 253 253 256 263 267 263 258 253 251 253 252 250 246 242 240 239 238 240 243 245 245 243 245 253 259 260 262 262 260 259 258 259 261 263 265 265 266
224 227 230 230 229 230 232 234 236 236 237 239 239 239 238 237 235 235 231 225 221 218 215 213 213 213 211 209 205 199 194 188 180 178 180 182 183 187 194 198 201 207 215 221 226 230 235 241 245 246 249 256 266 269 265 261 256 251 250 250 246 243 239 238 239 242 243 243 242 239 239 245 253 256 257 259 260 258 256 257 257 257 258 261 262 263
223 225 228 229 228 228 228 229 233 235 236 237 239 238 236 234 233 232 230 226 221 219 216 213 212 213 211 209 206 200 194 189 184 183 186 187 187 192 199 203 207 211 215 220 224 227 234 239 238 236 241 247 249 245 244 251 256 254 252 250 245 240 238 238 239 239 240 239 238 238 240 244 249 251 251 254 256 255 252 253 254 254 254 255 256 259
223 224 227 229 229 228 228 228 230 233 234 235 237 237 235 233 231 229 227 225 221 219 218 215 212 212 211 208 205 201 196 192 189 189 190 190 190 194 200 204 209 214 217 220 221 224 231 234 229 224 226 229 232 233 234 242 251 253 253 252 247 240 237 239 239 238 238 237 236 237 239 241 243 247 249 250 251 251 250 250 252 256 258 258 257 257
223 224 226 229 229 228 228 228 228 230 231 231 233 236 236 234 232 229 227 224 221 219 219 218 216 214 212 208 205 201 198 194 192 193 193 193 193 196 201 204 210 215 219 220 220 221 225 226 222 219 221 223 227 231 232 236 241 244 247 249 249 243 238 239 240 239 239 239 239 240 241 241 243 246 250 251 251 252 254 256 258 261 264 266 266 264
222 224 225 227 228 228 227 227 227 229 230 229 230 232 234 234 232 230 227 224 221 219 218 218 218 217 215 211 207 203 200 197 195 196 197 197 196 198 203 206 211 216 219 221 220 218 219 222 222 221 221 225 229 230 230 233 235 236 237 242 246 246 242 240 241 242 242 242 242 243 245 247 248 250 253 254 255 257 260 264 265 265 265 268 271 272
221 223 224 225 226 227 226 226 226 227 229 228 228 229 230 231 231 230 228 226 223 220 218 217 217 217 216 213 210 207 203 200 199 199 200 200 199 200 205 209 214 217 219 220 219 217 217 221 225 225 225 228 230 228 228 231 233 233 234 237 241 244 243 242 242 242 241 241 241 244 248 252 252 251 253 256 258 260 262 264 264 265 265 266 267 270
221 222 223 224 224 225 226 226 225 225 227 228 228 228 228 228 230 230 228 226 225 223 219 217 217 216 216 214 212 209 206 204 203 202 202 202 201 202 206 211 215 219 220 220 219 217 217 221 227 230 229 228 227 225 226 229 231 233 235 237 240 243 246 246 245 242 241 240 241 243 246 248 248 250 253 256 258 260 261 261 262 264 266 266 265 266
222 222 223 224 224 224 225 225 223 222 224 226 228 229 229 227 228 229 228 226 225 224 222 220 218 218 217 215 213 211 210 207 206 205 204 204 203 204 208 212 215 218 220 220 220 220 219 221 228 232 229 227 226 225 226 228 229 232 234 236 238 241 244 246 245 243 242 242 242 243 244 244 245 249 254 258 260 262 262 262 262 265 266 266 265 265
223 223 223 223 224 224 225 226 225 222 222 224 226 228 229 228 227 227 227 226 224 223 222 221 220 219 219 217 215 214 213 211 210 208 207 207 207 208 210 213 216 219 221 222 222 222 222 223 227 230 230 229 228 227 229 231 232 232 232 234 235 237 240 242 242 241 241 241 242 244 246 247 249 251 253 255 257 259 260 260 261 262 263 263 263 264
225 224 223 223 224 225 226 227 227 225 222 222 224 225 227 228 228 226 226 226 225 224 222 221 222 221 220 219 217 216 216 215 213 212 211 211 211 212 213 214 217 220 223 224 225 226 226 226 228 230 231 231 231 231 231 234 235 234 232 233 234 235 237 240 241 240 240 240 241 243 245 248 250 251 251 252 252 253 254 256 257 258 260 261 262 262
226 226 226 225 224 225 226 227 227 227 225 223 223 224 225 226 227 226 225 225 225 226 225 223 222 223 223 222 220 218 218 217 217 216 214 215 216 216 216 216 218 220 223 225 227 229 230 230 231 232 232 232 233 234 234 236 238 238 236 234 235 236 237 239 241 241 241 241 242 243 244 246 248 249 250 251 251 251 251 252 254 256 259 261 263 264
228 229 230 230 228 227 228 227 227 229 229 227 225 226 226 226 227 227 227 225 224 225 227 227 225 224 224 224 223 222 220 219 218 218 218 218 219 219 220 220 220 221 224 226 228 230 231 232 233 233 233 233 234 235 236 238 241 243 243 241 239 238 238 240 241 242 243 244 245 246 246 247 249 251 251 251 251 251 251 252 253 254 256 258 261 263
230 230 231 232 233 232 232 231 228 229 231 230 228 228 229 229 230 231 231 230 226 224 225 227 228 227 226 226 225 225 225 223 220 219 220 221 221 222 223 224 224 224 226 227 229 231 232 233 234 235 235 235 235 235 237 240 243 246 248 248 247 245 243 242 243 244 247 248 248 248 249 250 251 252 253 253 253 252 252 252 252 253 254 256 258 260
229 230 230 231 233 234 235 234 232 231 231 232 232 232 232 232 232 233 234 235 233 230 227 226 227 228 228 227 227 227 228 227 225 222 222 222 223 224 225 227 227 228 229 230 231 233 234 235 235 237 237 238 238 238 239 241 243 246 248 249 250 251 250 249 248 248 250 251 252 251 251 252 252 253 254 255 255 254 254 253 253 254 254 255 257 259
229 229 229 229 231 234 235 236 236 234 234 234 235 235 235 235 234 234 235 236 236 236 234 231 229 230 230 229 228 228 229 229 228 227 225 224 225 225 227 228 229 230 232 233 234 235 236 237 237 238 239 239 240 240 241 242 243 245 247 248 249 251 253 253 253 253 253 253 253 254 254 254 254 254 255 256 256 256 256 255 255 255 256 256 257 259
230 229 228 227 229 231 233 235 236 236 237 237 237 238 239 238 237 236 236 236 236 237 238 236 234 233 233 233 231 230 229 228 228 229 228 227 226 227 228 229 230 231 233 235 236 238 239 241 242 241 240 241 241 242 242 244 246 247 248 248 249 250 251 252 253 254 254 254 254 254 254 255 256 256 256 256 256 256 256 256 256 256 257 257 258 259
229 230 230 229 228 229 231 232 234 236 237 238 239 240 242 241 240 238 238 238 238 238 238 238 236 235 235 235 235 234 231 229 227 228 229 229 227 227 228 229 231 231 232 234 237 239 241 243 245 246 244 243 243 243 244 246 248 250 251 251 251 251 251 252 253 254 255 255 255 255 255 256 256 257 258 258 258 259 259 258 258 258 258 258 258 259
228 229 231 231 230 230 231 231 232 234 237 239 240 241 243 244 243 241 239 238 239 240 240 240 239 237 234 234 235 235 234 232 229 227 228 228 228 226 227 228 230 232 232 233 236 239 241 243 246 248 249 248 247 247 247 248 249 251 253 254 255 255 255 255 255 256 256 256 256 256 256 257 257 257 258 258 259 259 260 260 260 261 261 261 261 261
231 230 231 232 232 232 232 232 233 234 235 237 239 241 243 244 245 245 243 241 240 240 240 240 240 239 236 234 233 233 233 233 233 231 229 229 229 229 229 229 230 231 232 233 235 237 238 240 243 245 248 251 251 251 251 251 251 252 253 255 256 258 259 260 260 260 259 258 257 257 258 258 258 258 258 259 260 260 260 260 260 261 262 263 263 264
233 232 232 232 232 232 233 233 235 235 236 237 238 240 242 244 245 246 246 245 243 242 241 241 242 241 239 237 235 234 233 233 234 234 232 231 230 231 231 231 231 231 232 233 234 235 236 237 239 240 242 245 248 251 252 253 253 254 255 256 257 258 260 261 262 263 262 261 260 260 260 260 259 259 259 259 259 260 260 261 261 261 261 262 263 265
235 235 234 234 233 233 233 233 234 236 237 238 239 240 241 243 244 246 247 247 247 247 245 244 243 243 242 240 237 236 234 234 234 235 235 234 233 232 232 232 233 233 233 233 233 234 236 237 238 239 239 239 240 242 245 247 248 250 252 254 256 258 260 261 263 264 264 264 264 265 265 265 265 264 264 263 262 262 262 262 262 263 263 263 264 265
237 236 236 236 235 234 234 233 233 234 236 237 238 239 241 242 244 245 246 247 248 249 249 248 247 246 245 243 240 238 236 235 235 235 235 236 236 235 234 234 233 234 235 235 235 235 236 237 239 240 241 241 241 242 243 243 244 245 246 248 249 251 254 256 257 259 260 261 262 263 265 267 268 269 269 269 269 268 267 266 266 266 266 266 266 267
238 238 238 237 237 236 235 235 234 234 234 235 237 238 239 241 243 245 246 247 247 248 250 251 251 250 249 247 244 241 239 238 237 237 237 237 238 238 238 237 236 236 236 236 236 237 238 238 239 240 241 243 244 245 246 247 247 248 248 249 249 249 250 251 252 254 256 258 260 262 264 266 267 268 269 270 270 270 270 270 270 270 270 270 270 271
240 240 240 239 239 238 238 237 237 236 236 236 236 237 238 240 241 243 245 247 247 248 249 250 252 253 254 253 249 245 243 242 241 241 240 240 240 240 240 240 240 240 239 238 237 237 238 239 240 240 241 243 245 246 247 248 249 250 251 252 252 252 252 252 253 255 257 259 261 263 265 266 267 269 269 270 270 271 271 271 272 272 272 273 273 273
242 242 241 241 241 240 240 239 239 239 239 238 238 239 239 240 241 242 244 245 247 247 248 249 251 252 254 255 254 251 248 246 244 243 242 242 242 242 242 243 243 243 243 242 241 240 239 239 239 240 241 242 244 245 246 247 249 250 251 252 253 253 254 255 257 258 259 260 262 264 265 266 268 269 270 270 271 271 271 271 272 272 272 273 273 273
244 244 244 243 243 243 242 241 241 240 240 240 241 241 241 242 242 243 244 245 246 247 248 248 250 251 253 255 256 255 254 252 249 247 245 244 243 243 243 244 244 245 245 246 245 245 244 243 242 242 242 243 244 245 246 247 248 249 250 251 252 254 255 256 257 259 260 261 262 263 264 265 267 268 269 270 270 271 271 271 271 272 272 273 273 273
Height
10561 10562 10561 10559 10559 10562 10566 10569 10572 10573 10574 10576 10578 10579 10578 10578 10576 10575 10578 10582 10586 10591 10593 10596 10601 10604 10604 10605 10608 10609 10610 10611 10614 10622 10627 10630 10631 10629 10632 10637 10646 10652 10652 10651 10653 10653 10655 10658 10662 10663 10663 10664 10663 10662 10662 10663 10665 10664 10664 10666 10669 10671 10672 10672 10673 10674 10675 10676 10677 10678 10680 10681 10682 10684 10685 10687 10688 10689 10691 10692 10693 10693 10694 10695 10696 10696
10555 10556 10552 10550 10553 10557 10561 10564 10566 10567 10567 10568 10570 10572 10572 10571 10569 10569 10572 10574 10580 10586 10585 10587 10593 10596 10596 10597 10601 10606 10607 10606 10609 10616 10621 10624 10623 10622 10626 10633 10640 10644 10642 10642 10643 10644 10649 10653 10656 10658 10658 10659 10657 10656 10656 10658 10660 10660 10659 10661 10664 10667 10667 10668 10669 10670 10671 10672 10673 10674 10675 10677 10679 10680 10681 10683 10684 10686 10687 10689 10690 10690 10691 10692 10692 10693
10548 10547 10542 10544 10550 10553 10556 10558 10559 10559 10561 10562 10563 10566 10566 10564 10563 10564 10565 10567 10575 10580 10577 10579 10586 10588 10589 10591 10597 10603 10603 10601 10603 10609 10614 10617 10616 10617 10622 10629 10633 10634 10633 10634 10635 10639 10645 10649 10651 10652 10653 10653 10652 10651 10652 10653 10655 10656 10655 10656 10660 10663 10664 10665 10665 10666 10667 10668 10669 10670 10672 10673 10674 10675 10677 10679 10681 10682 10683 10685 10686 10687 10687 10688 10689 10689
10540 10536 10535 10541 10546 10547 10549 10551 10552 10554 10555 10556 10557 10559 10558 10557 10558 10558 10558 10562 10570 10572 10569 10574 10581 10581 10581 10586 10593 10597 10597 10595 10597 10603 10609 10611 10611 10613 10620 10625 10626 10625 10625 10628 10630 10635 10640 10642 10644 10646 10648 10648 10647 10647 10648 10649 10651 10652 10652 10653 10656 10659 10660 10662 10662 10663 10664 10665 10666 10667 10668 10669 10670 10671 10673 10675 10677 10678 10680 10681 10682 10683 10683 10684 10685 10686
10531 10528 10532 10538 10540 10541 10542 10544 10547 10548 10549 10550 10551 10552 10551 10551 10552 10551 10553 10559 10563 10563 10564 10570 10576 10574 10574 10581 10587 10591 10591 10591 10594 10599 10604 10606 10606 10610 10615 10618 10617 10617 10620 10623 10625 10629 10633 10634 10637 10640 10642 10643 10644 10644 10645 10646 10648 10649 10649 10650 10652 10654 10657 10658 10659 10660 10661 10661 10662 10663 10664 10665 10666 10668 10670 10671 10672 10674 10676 10677 10679 10679 10680 10680 10681 10682
10523 10523 10529 10532 10533 10535 10537 10539 10541 10542 10544 10545 10544 10545 10545 10545 10546 10547 10550 10555 10556 10556 10560 10566 10570 10568 10568 10576 10583 10585 10586 10587 10591 10596 10598 10600 10603 10606 10609 10609 10609 10611 10614 10617 10620 10623 10626 10628 10632 10635 10638 10640 10640 10641 10642 10643 10645 10647 10648 10648 10648 10650 10653 10654 10655 10656 10657 10658 10659 10660 10661 10662 10663 10665 10665 10667 10669 10671 10672 10674 10675 10676 10676 10677 10678 10679
10515 10518 10524 10525 10527 10531 10532 10533 10535 10537 10539 10538 10536 10538 10540 10540 10542 10543 10546 10550 10550 10552 10557 10561 10564 10563 10564 10572 10578 10579 10580 10583 10588 10591 10593 10596 10600 10602 10602 10603 10604 10607 10610 10612 10615 10617 10621 10624 10628 10630 10634 10636 10638 10639 10639 10641 10643 10645 10646 10645 10645 10646 10648 10650 10652 10653 10654 10655 10656 10657 10658 10659 10660 10661 10662 10664 10666 10667 10669 10670 10671 10672 10672 10673 10674 10675
10508 10514 10519 10520 10524 10525 10525 10526 10528 10531 10532 10531 10531 10534 10535 10536 10538 10539 10541 10545 10547 10550 10553 10556 10559 10559 10561 10568 10572 10574 10576 10579 10583 10585 10588 10592 10595 10596 10597 10599 10602 10604 10607 10608 10610 10613 10617 10620 10622 10626 10630 10634 10636 10636 10637 10638 10639 10641 10643 10643 10643 10643 10643 10645 10647 10650 10651 10652 10653 10654 10655 10656 10657 10658 10660 10662 10663 10665 10666 10667 10667 10668 10669 10669 10670 10671
10505 10512 10513 10516 10519 10518 10517 10520 10524 10526 10525 10525 10528 10530 10531 10532 10534 10536 10537 10539 10543 10547 10549 10552 10554 10555 10559 10564 10567 10569 10571 10574 10576 10579 10583 10587 10589 10590 10593 10597 10599 10601 10602 10604 10606 10610 10613 10615 10618 10622 10627 10632 10633 10633 10635 10636 10636 10637 10639 10640 10640 10640 10640 10641 10643 10645 10647 10648 10649 10651 10652 10653 10654 10655 10657 10659 10660 10662 10662 10663 10664 10664 10665 10666 10666 10667
10503 10505 10507 10512 10511 10509 10512 10517 10520 10519 10519 10522 10525 10526 10527 10528 10530 10531 10533 10535 10540 10545 10546 10548 10550 10551 10556 10560 10562 10564 10566 10568 10571 10574 10579 10582 10584 10587 10591 10594 10596 10597 10599 10601 10604 10607 10609 10612 10615 10620 10625 10629 10630 10630 10632 10633 10633 10634 10635 10637 10637 10637 10637 10638 10639 10641 10643 10644 10645 10647 10648 10649 10650 10652 10654 10655 10657 10658 10659 10659 10660 10660 10661 10662 10663 10663
10497 10499 10503 10505 10502 10503 10509 10513 10514 10513 10515 10519 10521 10521 10522 10524 10525 10527 10529 10531 10537 10541 10541 10543 10544 10546 10551 10556 10557 10559 10560 10563 10566 10569 10574 10577 10580 10583 10587 10590 10592 10594 10596 10598 10601 10604 10607 10609 10612 10616 10620 10624 10626 10627 10629 10630 10630 10630 10631 10633 10634 10635 10635 10635 10636 10637 10639 10640 10641 10643 10644 10645 10647 10649 10650 10651 10653 10654 10655 10655 10656 10656 10657 10658 10659 10659
10491 10495 10498 10497 10496 10501 10505 10508 10509 10508 10511 10514 10515 10516 10518 10520 10521 10524 10526 10529 10533 10535 10534 10537 10540 10542 10547 10551 10552 10554 10556 10558 10561 10564 10569 10572 10576 10579 10583 10586 10589 10591 10593 10596 10600 10603 10605 10606 10607 10611 10615 10619 10622 10624 10626 10627 10627 10627 10627 10628 10630 10631 10632 10633 10633 10634 10635 10636 10637 10639 10640 10642 10643 10645 10647 10647 10648 10650 10650 10651 10652 10652 10654 10655 10656 10656
10488 10490 10492 10492 10494 10498 10500 10503 10504 10504 10506 10509 10511 10513 10514 10516 10518 10520 10522 10525 10528 10528 10528 10533 10536 10538 10543 10545 10547 10550 10552 10554 10557 10560 10564 10568 10571 10575 10579 10583 10586 10589 10591 10595 10600 10604 10605 10602 10602 10605 10610 10614 10618 10621 10623 10624 10624 10623 10623 10624 10625 10626 10628 10629 10630 10630 10631 10632 10633 10635 10636 10638 10639 10641 10642 10643 10644 10645 10646 10647 10647 10648 10649 10651 10652 10652
10483 10485 10487 10488 10490 10493 10495 10497 10498 10500 10503 10506 10508 10509 10511 10513 10514 10516 10518 10520 10522 10522 10524 10530 10533 10535 10538 10541 10543 10546 10548 10550 10553 10557 10561 10565 10568 10572 10577 10581 10584 10586 10590 10593 10594 10596 10596 10594 10596 10601 10606 10611 10616 10620 10622 10622 10622 10621 10621 10621 10621 10622 10624 10626 10627 10627 10628 10629 10630 10631 10632 10634 10635 10637 10638 10639 10640 10641 10641 10642 10643 10643 10645 10646 10648 10649
10478 10480 10482 10483 10485 10488 10490 10492 10495 10498 10501 10502 10504 10506 10507 10508 10510 10511 10513 10516 10517 10518 10521 10526 10530 10532 10534 10536 10539 10541 10544 10547 10551 10555 10559 10562 10565 10570 10574 10578 10582 10585 10588 10589 10587 10586 10587 10589 10593 10599 10604 10609 10616 10622 10624 10622 10621 10619 10618 10619 10619 10621 10621 10622 10623 10623 10624 10625 10625 10627 10628 10630 10631 10632 10633 10634 10635 10636 10637 10638 10638 10639 10640 10642 10644 10645
10474 10476 10477 10478 10481 10484 10486 10489 10493 10496 10497 10499 10500 10501 10502 10503 10505 10508 10510 10512 10514 10515 10519 10523 10527 10528 10529 10532 10535 10537 10540 10544 10549 10553 10556 10558 10561 10566 10571 10576 10580 10584 10588 10588 10586 10585 10586 10588 10592 10596 10601 10608 10617 10624 10624 10621 10618 10616 10614 10616 10619 10621 10622 10622 10621 10618 10619 10620 10621 10622 10624 10625 10626 10627 10628 10630 10630 10631 10632 10632 10633 10634 10636 10638 10639 10640
10470 10471 10472 10475 10478 10480 10482 10486 10490 10492 10493 10495 10495 10495 10496 10499 10502 10504 10506 10508 10511 10513 10516 10520 10522 10523 10526 10529 10531 10533 10538 10542 10546 10550 10552 10555 10559 10565 10570 10575 10579 10582 10584 10586 10585 10584 10584 10586 10589 10593 10598 10606 10616 10620 10616 10612 10611 10608 10609 10612 10616 10621 10622 10621 10618 10614 10613 10615 10616 10617 10618 10619 10620 10622 10623 10624 10624 10625 10626 10627 10629 10630 10631 10633 10634 10635
10465 10466 10468 10471 10473 10475 10479 10483 10486 10487 10489 10490 10490 10491 10494 10497 10498 10500 10502 10505 10507 10509 10512 10516 10519 10520 10523 10525 10528 10532 10536 10540 10544 10548 10550 10554 10560 10566 10571 10576 10580 10579 10577 10579 10580 10581 10582 10584 10586 10590 10594 10600 10608 10610 10605 10603 10603 10602 10604 10608 10613 10619 10619 10614 10611 10608 10608 10609 10610 10611 10613 10613 10615 10616 10617 10618 10620 10621 10622 10623 10624 10625 10627 10628 10629 10630
10459 10460 10464 10468 10469 10471 10475 10478 10481 10483 10484 10485 10486 10488 10491 10493 10494 10496 10498 10500 10503 10506 10509 10512 10515 10517 10519 10522 10525 10530 10534 10538 10541 10545 10549 10554 10560 10565 10572 10578 10583 10582 10578 10577 10577 10578 10579 10581 10583 10585 10589 10593 10598 10600 10599 10598 10598 10598 10602 10607 10611 10613 10611 10606 10603 10602 10602 10603 10605 10606 10607 10608 10609 10610 10612 10614 10616 10617 10618 10619 10619 10620 10622 10623 10624 10624
10454 10456 10461 10464 10465 10468 10471 10474 10477 10479 10480 10481 10483 10486 10488 10489 10491 10493 10494 10497 10499 10503 10506 10509 10512 10514 10516 10519 10523 10528 10532 10535 10539 10543 10547 10552 10555 10558 10564 10574 10582 10583 10580 10578 10577 10576 10576 10577 10578 10580 10584 10588 10592 10595 10595 10595 10595 10596 10601 10607 10609 10607 10604 10602 10599 10598 10599 10600 10601 10602 10603 10604 10605 10607 10609 10611 10613 10614 10614 10614 10614 10615 10616 10618 10619 10619
10450 10452 10457 10460 10462 10465 10467 10470 10474 10476 10477 10478 10480 10482 10484 10486 10488 10490 10491 10494 10496 10499 10502 10505 10508 10510 10512 10515 10520 10525 10529 10532 10536 10541 10545 10549 10550 10552 10559 10569 10576 10579 10579 10576 10573 10572 10572 10574 10576 10578 10581 10585 10588 10591 10592 10593 10593 10594 10599 10604 10604 10601 10599 10598 10596 10596 10597 10598 10599 10599 10600 10601 10602 10604 10605 10607 10609 10609 10610 10610 10609 10610 10611 10612 10613 10614
10447 10449 10453 10456 10459 10461 10464 10467 10470 10471 10472 10474 10477 10479 10480 10482 10485 10486 10488 10491 10493 10495 10498 10500 10503 10506 10509 10513 10518 10522 10525 10529 10533 10537 10540 10543 10544 10548 10556 10566 10573 10575 10575 10573 10568 10566 10568 10571 10573 10575 10578 10581 10584 10586 10589 10591 10591 10591 10592 10596 10596 10594 10594 10594 10593 10594 10595 10596 10597 10597 10597 10597 10598 10599 10600 10601 10603 10604 10605 10605 10604 10604 10605 10607 10608 10609
10443 10445 10448 10452 10455 10457 10460 10463 10465 10467 10469 10471 10473 10475 10476 10479 10481 10483 10485 10487 10490 10492 10494 10497 10499 10502 10506 10510 10514 10518 10522 10526 10530 10533 10536 10538 10538 10540 10548 10559 10567 10569 10567 10565 10563 10563 10565 10568 10570 10572 10574 10577 10579 10582 10585 10588 10587 10584 10585 10587 10589 10588 10588 10589 10590 10591 10592 10593 10593 10593 10593 10593 10593 10594 10595 10596 10598 10599 10600 10599 10599 10599 10600 10602 10603 10604
10439 10441 10443 10447 10451 10453 10456 10459 10461 10463 10465 10467 10469 10471 10473 10475 10477 10479 10481 10484 10486 10489 10491 10493 10496 10499 10503 10506 10510 10514 10518 10522 10526 10529 10532 10534 10534 10534 10539 10547 10556 10559 10558 10558 10558 10560 10563 10565 10567 10568 10571 10573 10575 10577 10580 10582 10581 10579 10579 10581 10582 10583 10583 10584 10585 10586 10587 10587 10588 10589 10589 10589 10588 10589 10589 10591 10593 10594 10593 10593 10594 10594 10595 10596 10598 10599
10435 10436 10439 10442 10446 10449 10452 10455 10457 10459 10460 10463 10465 10467 10469 10471 10473 10475 10478 10480 10483 10485 10488 10490 10493 10496 10499 10503 10507 10510 10514 10518 10522 10525 10528 10529 10529 10531 10535 10539 10544 10547 10550 10551 10553 10555 10558 10561 10563 10565 10567 10569 10572 10574 10575 10574 10574 10575 10575 10576 10577 10578 10578 10579 10580 10581 10582 10583 10584 10584 10584 10585 10584 10584 10584 10586 10587 10588 10587 10587 10588 10589 10589 10591 10592 10593
10430 10432 10434 10438 10442 10445 10448 10450 10452 10453 10456 10459 10461 10463 10465 10467 10470 10471 10474 10477 10479 10482 10484 10487 10490 10492 10496 10500 10504 10507 10511 10515 10519 10522 10523 10524 10525 10528 10532 10535 10538 10540 10542 10545 10547 10551 10554 10557 10559 10561 10564 10566 10568 10571 10570 10567 10568 10570 10570 10570 10572 10573 10574 10574 10575 10576 10578 10579 10580 10580 10580 10580 10580 10580 10580 10581 10582 10582 10581 10582 10583 10584 10585 10586 10587 10588
10426 10428 10430 10434 10438 10441 10444 10445 10447 10449 10452 10455 10457 10459 10461 10463 10465 10468 10470 10473 10476 10478 10480 10483 10485 10489 10492 10497 10501 10505 10509 10512 10515 10517 10517 10518 10521 10525 10529 10532 10535 10536 10538 10540 10543 10547 10550 10551 10554 10558 10560 10562 10563 10565 10564 10561 10562 10565 10566 10565 10566 10568 10569 10570 10571 10571 10573 10574 10575 10575 10576 10577 10577 10576 10576 10577 10577 10577 10577 10577 10577 10578 10579 10580 10581 10583
10422 10424 10426 10430 10434 10437 10439 10441 10443 10445 10447 10450 10453 10455 10457 10459 10461 10464 10466 10468 10471 10474 10477 10480 10481 10484 10488 10492 10497 10501 10504 10507 10509 10510 10512 10514 10518 10521 10523 10526 10529 10531 10533 10535 10538 10541 10543 10545 10549 10553 10555 10556 10557 10558 10559 10558 10558 10560 10561 10559 10559 10562 10564 10564 10564 10566 10568 10569 10570 10570 10571 10572 10572 10571 10571 10572 10573 10572 10572 10572 10573 10573 10573 10574 10576 10578
10418 10420 10422 10425 10429 10432 10434 10436 10438 10440 10443 10446 10449 10451 10453 10456 10458 10460 10462 10465 10467 10470 10473 10476 10478 10481 10484 10488 10492 10495 10498 10501 10504 10506 10508 10511 10514 10517 10518 10519 10521 10524 10527 10529 10532 10535 10537 10539 10543 10547 10548 10550 10551 10552 10554 10555 10554 10555 10555 10553 10553 10556 10558 10557 10559 10562 10565 10565 10566 10566 10567 10567 10567 10567 10567 10567 10567 10568 10568 10568 10569 10570 10568 10566 10568 10571
10413 10416 10418 10421 10424 10427 10430 10432 10434 10436 10438 10442 10445 10447 10449 10452 10454 10456 10459 10461 10463 10466 10468 10471 10475 10478 10481 10484 10487 10490 10493 10496 10499 10502 10505 10507 10510 10512 10513 10514 10516 10518 10521 10525 10528 10530 10532 10534 10537 10540 10542 10543 10544 10547 10549 10550 10549 10548 10548 10547 10547 10550 10552 10553 10555 10558 10561 10561 10562 10562 10562 10562 10563 10564 10563 10562 10562 10564 10564 10563 10564 10566 10564 10562 10561 10562
10408 10411 10413 10415 10418 10422 10425 10428 10430 10432 10434 10437 10440 10442 10444 10447 10450 10452 10455 10458 10460 10461 10463 10466 10470 10473 10477 10480 10483 10486 10489 10492 10494 10496 10499 10501 10504 10506 10509 10511 10512 10514 10517 10520 10523 10525 10527 10528 10531 10534 10536 10537 10539 10541 10543 10543 10542 10542 10542 10542 10543 10545 10547 10549 10551 10553 10555 10556 10557 10557 10557 10557 10558 10557 10557 10557 10559 10559 10560 10560 10559 10560 10560 10560 10559 10558
10403 10405 10408 10410 10414 10417 10420 10423 10426 10428 10430 10432 10435 10437 10440 10443 10445 10448 10451 10454 10456 10457 10459 10462 10464 10467 10471 10475 10478 10482 10484 10486 10488 10490 10493 10495 10498 10501 10503 10506 10508 10511 10513 10515 10516 10518 10520 10523 10525 10528 10531 10531 10532 10534 10535 10535 10535 10535 10536 10537 10538 10540 10542 10544 10546 10548 10549 10550 10552 10552 10552 10552 10552 10551 10552 10553 10554 10554 10555 10556 10555 10555 10555 10556 10555 10553
10398 10400 10403 10406 10409 10412 10414 10417 10420 10423 10425 10427 10430 10432 10435 10438 10441 10444 10446 10449 10451 10453 10455 10457 10459 10462 10465 10469 10473 10476 10479 10481 10483 10485 10488 10490 10493 10496 10498 10500 10503 10505 10507 10508 10509 10512 10515 10517 10519 10522 10524 10524 10524 10526 10527 10527 10527 10528 10529 10531 10532 10534 10536 10538 10540 10543 10545 10546 10547 10547 10547 10547 10547 10548 10548 10549 10549 10550 10550 10551 10552 10551 10550 10549 10549 10548
10393 10395 10398 10401 10403 10406 10408 10411 10415 10418 10420 10423 10425 10427 10430 10433 10436 10439 10441 10444 10446 10448 10450 10453 10455 10458 10461 10464 10468 10471 10473 10476 10478 10481 10484 10486 10489 10491 10493 10495 10498 10499 10500 10502 10504 10506 10509 10511 10513 10515 10516 10516 10517 10518 10519 10519 10520 10521 10523 10525 10527 10529 10530 10532 10535 10538 10539 10540 10541 10542 10542 10542 10543 10543 10544 10544 10544 10545 10545 10546 10547 10546 10543 10542 10543 10543
10387 10390 10392 10395 10398 10401 10403 10406 10410 10412 10415 10418 10419 10422 10424 10427 10430 10434 10436 10438 10440 10443 10445 10448 10450 10453 10455 10459 10462 10465 10468 10471 10474 10477 10480 10482 10484 10487 10489 10491 10492 10493 10495 10497 10498 10500 10503 10505 10507 10508 10510 10510 10510 10511 10512 10512 10512 10514 10516 10519 10521 10523 10525 10527 10529 10532 10533 10534 10535 10536 10536 10536 10536 10537 10538 10539 10539 10539 10539 10540 10541 10540 10537 10537 10537 10537
10381 10384 10386 10389 10393 10395 10398 10401 10404 10406 10409 10412 10414 10416 10418 10421 10423 10427 10430 10433 10436 10438 10440 10442 10445 10447 10450 10453 10456 10459 10462 10465 10469 10472 10476 10478 10479 10481 10483 10485 10486 10487 10489 10491 10493 10494 10496 10498 10500 10502 10503 10504 10504 10505 10505 10506 10505 10506 10509 10513 10515 10517 10519 10521 10523 10526 10527 10528 10529 10530 10531 10530 10529 10529 10531 10532 10533 10533 10533 10534 10535 10534 10533 10532 10531 10530
10376 10379 10382 10385 10389 10391 10392 10396 10398 10400 10403 10406 10409 10410 10412 10414 10417 10420 10424 10427 10431 10433 10435 10437 10439 10442 10445 10448 10451 10454 10456 10459 10463 10467 10470 10472 10474 10476 10478 10478 10480 10481 10484 10486 10488 10488 10489 10490 10493 10495 10497 10498 10499 10500 10500 10500 10500 10500 10503 10506 10509 10512 10513 10515 10518 10520 10521 10523 10524 10524 10525 10525 10522 10522 10524 10525 10526 10527 10526 10527 10528 10527 10527 10526 10524 10523
10371 10375 10378 10382 10385 10386 10387 10390 10393 10395 10398 10400 10403 10404 10406 10409 10412 10415 10419 10422 10425 10427 10429 10432 10435 10437 10440 10442 10445 10448 10450 10453 10457 10461 10463 10465 10467 10470 10471 10472 10474 10476 10478 10480 10481 10480 10481 10484 10486 10488 10491 10493 10494 10495 10495 10495 10496 10496 10497 10499 10502 10504 10507 10509 10511 10514 10515 10516 10517 10518 10518 10519 10517 10516 10517 10517 10519 10519 10519 10519 10519 10519 10519 10519 10517 10515
10365 10369 10373 10377 10378 10378 10381 10385 10388 10390 10392 10394 10397 10399 10401 10404 10407 10410 10414 10416 10418 10421 10424 10427 10429 10432 10434 10437 10439 10442 10444 10447 10452 10455 10457 10459 10461 10462 10463 10465 10467 10470 10471 10472 10473 10474 10474 10477 10479 10482 10485 10487 10488 10489 10489 10491 10491 10490 10490 10492 10494 10496 10499 10502 10504 10506 10508 10508 10509 10510 10510 10511 10511 10511 10510 10510 10511 10511 10511 10511 10511 10511 10511 10511 10509 10507
10359 10362 10366 10370 10371 10373 10376 10380 10382 10385 10387 10388 10390 10392 10395 10398 10401 10404 10408 10410 10412 10415 10418 10422 10424 10426 10429 10431 10434 10436 10439 10442 10445 10448 10451 10453 10455 10456 10457 10459 10461 10463 10464 10464 10466 10467 10468 10469 10471 10475 10478 10479 10481 10483 10483 10484 10484 10483 10482 10485 10487 10488 10490 10493 10495 10497 10498 10499 10500 10501 10502 10502 10503 10503 10503 10503 10503 10503 10503 10503 10503 10503 10503 10503 10502 10501
10352 10355 10358 10362 10365 10367 10370 10374 10376 10378 10380 10382 10384 10386 10388 10392 10395 10398 10401 10403 10405 10409 10412 10415 10419 10421 10423 10426 10428 10431 10434 10436 10439 10441 10444 10446 10448 10450 10452 10453 10455 10456 10457 10458 10460 10461 10462 10462 10463 10466 10470 10472 10474 10475 10476 10476 10477 10476 10475 10477 10479 10480 10481 10483 10485 10486 10488 10490 10491 10492 10493 10494 10495 10495 10496 10496 10495 10495 10495 10494 10495 10495 10495 10495 10494 10493
10345 10348 10352 10355 10359 10361 10364 10367 10370 10372 10373 10376 10378 10380 10381 10384 10388 10392 10394 10395 10398 10402 10405 10408 10411 10415 10417 10420 10423 10425 10427 10430 10432 10434 10436 10438 10441 10443 10445 10446 10448 10449 10451 10453 10454 10455 10456 10457 10457 10458 10461 10463 10465 10467 10468 10469 10469 10469 10468 10468 10469 10470 10472 10474 10476 10477 10479 10481 10482 10484 10484 10485 10486 10487 10487 10488 10488 10488 10487 10486 10486 10487 10486 10486 10485 10485
10339 10343 10346 10349 10353 10356 10358 10361 10363 10365 10367 10369 10372 10373 10374 10377 10380 10382 10386 10389 10392 10395 10398 10400 10403 10406 10409 10413 10416 10418 10420 10423 10425 10427 10429 10431 10433 10435 10437 10439 10441 10442 10444 10447 10448 10448 10450 10451 10451 10451 10453 10455 10456 10458 10460 10461 10461 10461 10461 10460 10460 10461 10462 10465 10466 10468 10471 10472 10473 10474 10475 10476 10477 10478 10478 10479 10479 10479 10479 10478 10477 10476 10475 10475 10475 10475
10335 10338 10341 10344 10347 10350 10353 10355 10357 10359 10361 10363 10365 10367 10368 10369 10371 10372 10377 10382 10386 10388 10390 10393 10395 10397 10401 10404 10407 10409 10413 10415 10417 10419 10421 10423 10425 10428 10431 10433 10434 10435 10437 10439 10440 10442 10443 10444 10444 10446 10446 10447 10448 10450 10451 10452 10453 10453 10453 10453 10453 10452 10453 10454 10455 10457 10460 10463 10464 10465 10467 10468 10468 10469 10469 10469 10469 10469 10469 10468 10468 10467 10465 10464 10464 10463
10329 10332 10335 10338 10341 10344 10347 10349 10351 10353 10355 10357 10359 10361 10361 10362 10363 10364 10367 10372 10376 10379 10382 10385 10387 10389 10392 10396 10399 10402 10405 10407 10409 10411 10413 10416 10418 10421 10423 10426 10427 10428 10430 10432 10433 10434 10436 10436 10437 10439 10441 10442 10443 10444 10445 10445 10445 10445 10444 10444 10445 10445 10445 10446 10446 10446 10449 10451 10453 10455 10457 10458 10458 10459 10459 10459 10459 10459 10458 10458 10458 10457 10456 10455 10454 10453
10323 10326 10330 10332 10334 10337 10340 10343 10345 10347 10349 10350 10352 10354 10354 10355 10356 10357 10359 10363 10365 10368 10372 10376 10378 10380 10382 10386 10391 10394 10397 10399 10401 10403 10405 10408 10411 10414 10416 10418 10420 10421 10422 10424 10425 10427 10428 10429 10431 10432 10434 10436 10437 10438 10438 10439 10439 10438 10438 10437 10438 10438 10438 10438 10438 10439 10439 10441 10443 10444 10445 10446 10447 10447 10447 10448 10448 10448 10448 10447 10447 10447 10446 10445 10445 10443
10317 10320 10323 10324 10327 10329 10332 10334 10336 10338 10340 10342 10344 10346 10347 10347 10348 10350 10352 10354 10357 10358 10361 10365 10368 10369 10372 10376 10381 10385 10388 10391 10393 10394 10397 10400 10402 10405 10408 10411 10412 10414 10415 10416 10418 10420 10421 10423 10424 10425 10427 10428 10429 10430 10431 10431 10431 10431 10431 10431 10431 10432 10432 10432 10432 10432 10432 10433 10434 10435 10436 10436 10436 10436 10436 10436 10436 10436 10436 10436 10435 10435 10434 10434 10434 10433
10311 10313 10315 10317 10319 10321 10323 10325 10327 10328 10330 10333 10334 10336 10338 10339 10340 10341 10343 10346 10349 10351 10352 10354 10356 10358 10360 10365 10370 10375 10380 10383 10385 10386 10389 10392 10394 10396 10399 10401 10403 10405 10407 10409 10410 10412 10414 10415 10416 10417 10418 10419 10421 10422 10422 10423 10423 10423 10423 10424 10424 10424 10425 10425 10425 10424 10424 10425 10425 10426 10427 10427 10427 10427 10427 10426 10426 10425 10425 10425 10424 10423 10422 10422 10422 10421
10305 10306 10308 10309 10311 10313 10314 10316 10318 10320 10322 10323 10324 10326 10327 10329 10331 10332 10334 10336 10339 10342 10344 10345 10346 10347 10348 10351 10357 10366 10372 10376 10378 10380 10382 10384 10386 10388 10390 10392 10394 10396 10397 10399 10402 10404 10405 10406 10407 10408 10409 10411 10412 10413 10413 10414 10414 10415 10415 10415 10415 10416 10416 10416 10416 10416 10416 10416 10416 10416 10416 10416 10416 10416 10416 10416 10416 10415 10415 10414 10413 10412 10411 10410 10410 10409
10299 10300 10300 10302 10303 10304 10306 10308 10310 10312 10313 10315 10315 10317 10318 10319 10321 10323 10324 10326 10329 10332 10334 10336 10337 10338 10338 10339 10345 10355 10362 10366 10369 10371 10372 10374 10377 10380 10382 10384 10386 10387 10387 10389 10391 10393 10395 10396 10397 10398 10399 10400 10401 10403 10404 10404 10405 10405 10405 10405 10405 10405 10406 10406 10406 10406 10406 10406 10406 10406 10406 10405 10405 10405 10405 10405 10405 10405 10404 10404 10403 10401 10400 10398 10398 10398
10293 10293 10294 10295 10295 10296 10298 10299 10301 10303 10304 10305 10306 10308 10309 10310 10312 10314 10315 10317 10319 10321 10324 10326 10328 10328 10329 10331 10336 10343 10349 10352 10355 10358 10361 10364 10368 10370 10372 10374 10376 10376 10377 10379 10381 10383 10385 10386 10387 10387 10388 10389 10391 10392 10393 10394 10394 10394 10393 10394 10394 10395 10395 10395 10396 10396 10396 10396 10396 10395 10395 10395 10395 10395 10395 10394 10394 10393 10392 10392 10391 10391 10389 10387 10385 10385